This demonstration page uses our WeatherBlox Daily Observations layout. Learn more.

Left ArrowRight Arrow

40.97296, -117.73568

Hourly Observations for January 2, 2022

Temp ( °F °C ) Dew Point ( °F °C ) Humidity (%) Winds ( mph kmh ) Pressure ( in mb ) Visibility ( mi km ) Precip ( " mm )
12:56 am 00:56 Clear 2 -16.7 -3 -19.4 80 80 E 6 9 30.47 1032 10 16 0.00 0.00
1:56 am 01:56 Clear 0 -17.8 -5 -20.6 79 79 E 3 6 30.47 1032 10 16 0.00 0.00
2:56 am 02:56 Clear 10 -12.2 2 -16.7 69 69 VRB 7 11 30.43 1030 10 16 0.00 0.00
3:56 am 03:56 Clear 9 -12.8 2 -16.7 73 73 NE 10 17 30.42 1030 10 16 0.00 0.00
4:56 am 04:56 Clear 7 -13.9 1 -17.2 76 76 E 6 9 30.44 1031 10 16 0.00 0.00
5:56 am 05:56 Clear 8 -13.3 1 -17.2 73 73 E 6 9 30.44 1031 10 16 0.00 0.00
6:56 am 06:56 Clear 0 -17.8 -4 -20 83 83 SSE 5 7 30.48 1032 10 16 0.00 0.00
7:56 am 07:56 Sunny 8 -13.3 2 -16.7 76 76 E 6 9 30.45 1031 10 16 0.00 0.00
8:56 am 08:56 Sunny 14 -10 5 -15 67 67 NE 7 11 30.43 1030 10 16 0.00 0.00
9:56 am 09:56 Sunny 17 -8.3 6 -14.4 62 62 NE 9 15 30.42 1030 10 16 0.00 0.00
10:56 am 10:56 Sunny 18 -7.8 7 -13.9 62 62 NE 9 15 30.40 1029 10 16 0.00 0.00
11:56 am 11:56 Sunny 22 -5.6 9 -12.8 57 57 ENE 8 13 30.36 1028 10 16 0.00 0.00
12:56 pm 12:56 Sunny 23 -5 10 -12.2 57 57 ENE 8 13 30.35 1028 10 16 0.00 0.00
1:56 pm 13:56 Sunny 26 -3.3 10 -12.2 51 51 ENE 9 15 30.34 1027 10 16 0.00 0.00
2:56 pm 14:56 Sunny 24 -4.4 11 -11.7 57 57 ENE 8 13 30.30 1026 10 16 0.00 0.00
3:56 pm 15:56 Sunny 22 -5.6 10 -12.2 60 60 ENE 10 17 30.29 1026 10 16 0.00 0.00
4:56 pm 16:56 Clear 20 -6.7 10 -12.2 65 65 ENE 9 15 30.29 1026 10 16 0.00 0.00
5:56 pm 17:56 Clear 20 -6.7 9 -12.8 62 62 NE 12 19 30.29 1026 10 16 0.00 0.00
6:56 pm 18:56 Clear 18 -7.8 8 -13.3 65 65 ENE 7 11 30.31 1027 10 16 0.00 0.00
7:56 pm 19:56 Clear 18 -7.8 7 -13.9 62 62 ENE 9 15 30.28 1025 10 16 0.00 0.00
8:56 pm 20:56 Clear 17 -8.3 6 -14.4 62 62 ENE 8 13 30.25 1024 10 16 0.00 0.00
9:56 pm 21:56 Clear 17 -8.3 7 -13.9 64 64 NE 9 15 30.24 1024 10 16 0.00 0.00
10:56 pm 22:56 Clear 16 -8.9 6 -14.4 65 65 NE 13 20 30.23 1024 10 16 0.00 0.00
11:56 pm 23:56 Clear 16 -8.9 6 -14.4 65 65 ENE 9 15 30.19 1023 10 16 0.00 0.00

Powered by AerisWeather